Weather History for College Station, TX

Change the Weather History Date:

Tuesday, October 30, 2012

  Actual Average Record
Temperature  
Mean Temperature 60 °F 67 °F  
Max Temperature 75 °F 77 °F 96 °F (1927)
Min Temperature 44 °F 56 °F 29 °F (1917)
Degree Days  
Heating Degree Days 5 3  
Month to date heating degree days 56 30  
Since 1 July heating degree days 56 32  
Cooling Degree Days 0 4  
Month to date cooling degree days 222 212  
Year to date cooling degree days 3481 3008  
Growing Degree Days 10 (Base 50)    
Moisture  
Dew Point 43 °F    
Average Humidity 58    
Maximum Humidity 83    
Minimum Humidity 33    
Precipitation  
Precipitation 0.00 in 0.14 in 2.18 in (1929)
Month to date precipitation 2.17 4.79  
Year to date precipitation 36.92 33.49  
Sea Level Pressure  
Sea Level Pressure 30.07 in    
Wind  
Wind Speed 2 mph (South)    
Max Wind Speed 13 mph    
Max Gust Speed 16 mph    
Visibility 10 miles    
Events      
T = Trace of Precipitation, MM = Missing Value Source: NWS Daily Summary

Daily Weather History Graph

Daily Weather History Graph

Search for Another Location

Airport:

Trip Planner

Search our weather history database for the weather conditions in past years. The results will help you decide how hot, cold, wet, or windy it might be!

Date:

Astronomy

Oct. 30, 2012 Rise Set
Actual Time 7:38 AM CDT 6:38 PM CDT
Civil Twilight 7:14 AM CDT 7:03 PM CDT
Nautical Twilight 6:45 AM CDT 7:31 PM CDT
Astronomical Twilight 6:17 AM CDT 8:00 PM CDT
Moon 7:15 PM CDT 8:21 AM CDT
Length of Visible Light 11h 49m
Length of Day
10h 59m
Full, 99% of the Moon is Illuminated
Oct 30
Full
Nov 6
Last Quarter
Nov 13
New
Nov 20
First Quarter
Nov 28
Full

Hourly Weather History & Observations

Time (CDT) Temp. Dew Point Humidity Pressure Visibility Wind Dir Wind Speed Gust Speed Precip Events Conditions
12:53 AM 50.0 °F 37.9 °F 63% 30.14 in 10.0 mi Calm Calm - N/A   Clear
1:53 AM 48.9 °F 39.0 °F 69% 30.13 in 10.0 mi Calm Calm - N/A   Clear
2:53 AM 46.0 °F 39.0 °F 76% 30.13 in 10.0 mi Calm Calm - N/A   Clear
3:53 AM 48.9 °F 37.0 °F 64% 30.12 in 10.0 mi Calm Calm - N/A   Clear
4:53 AM 46.0 °F 37.9 °F 73% 30.10 in 10.0 mi Calm Calm - N/A   Clear
5:53 AM 45.0 °F 37.9 °F 76% 30.11 in 10.0 mi Calm Calm - N/A   Clear
6:53 AM 45.0 °F 39.0 °F 80% 30.11 in 10.0 mi Calm Calm - N/A   Clear
7:53 AM 45.0 °F 39.0 °F 80% 30.12 in 10.0 mi Calm Calm - N/A   Clear
8:53 AM 51.1 °F 42.1 °F 71% 30.14 in 10.0 mi Calm Calm - N/A   Clear
9:53 AM 55.9 °F 45.0 °F 67% 30.13 in 10.0 mi SSE 3.5 mph - N/A   Clear
10:53 AM 61.0 °F 43.0 °F 52% 30.13 in 10.0 mi Variable 4.6 mph - N/A   Clear
11:53 AM 66.0 °F 43.0 °F 43% 30.13 in 10.0 mi Calm Calm - N/A   Clear
12:53 PM 70.0 °F 46.0 °F 42% 30.08 in 10.0 mi SSW 8.1 mph - N/A   Clear
1:53 PM 73.0 °F 43.0 °F 34% 30.05 in 10.0 mi SSW 8.1 mph - N/A   Clear
2:53 PM 73.9 °F 45.0 °F 35% 30.02 in 10.0 mi WSW 5.8 mph - N/A   Clear
3:53 PM 75.0 °F 45.0 °F 34% 30.00 in 10.0 mi Variable 4.6 mph - N/A   Clear
4:53 PM 75.0 °F 46.0 °F 36% 29.99 in 10.0 mi SE 3.5 mph - N/A   Clear
5:53 PM 73.9 °F 46.0 °F 37% 29.98 in 10.0 mi SSW 3.5 mph - N/A   Clear
6:53 PM 68.0 °F 46.4 °F 46% 29.99 in 10.0 mi Calm Calm - N/A   Clear
7:53 PM 64.9 °F 48.9 °F 56% 30.00 in 10.0 mi Calm Calm - N/A   Clear
8:53 PM 63.0 °F 48.0 °F 58% 30.01 in 10.0 mi Calm Calm - N/A   Clear
9:53 PM 63.0 °F 48.0 °F 58% 30.01 in 10.0 mi Calm Calm - N/A   Clear
10:53 PM 60.1 °F 48.9 °F 67% 30.02 in 10.0 mi Calm Calm - N/A   Clear
11:53 PM 60.1 °F 50.0 °F 69% 30.01 in 10.0 mi South 5.8 mph - N/A   Clear